{"data":{"norad_id":81693,"epoch":"2026-05-20T13:44:22.061184Z","epoch_age_seconds":454763,"freshness":"STALE","line1":"1 81693U          26140.57247756  .00000589  00000+0  43297-2 0  9991","line2":"2 81693 101.1030 189.7190 0395234 143.6088 219.2543 12.26261189987239","mean_motion":12.26261189,"eccentricity":0.0395234,"inclination_deg":101.103,"raan_deg":189.719,"arg_perigee_deg":143.6088,"mean_anomaly_deg":219.2543,"bstar":0.0043297,"rev_number":98723,"period_min":117.43012116157,"perigee_km":1251.4314647235,"apogee_km":1879.3415798864,"semimajor_km":7943.523522305,"source":"CELESTRAK","updated_at":"2026-05-25T13:38:11.082171Z"}}